Location: Barcelona
(41.3830°N, 2.1830°E)
Time: 19:06:00
(UTC+01:00)

ISS - Pass Details

Date: 21 January 2020
Orbit: 415 x 422 km, 51.6° (Epoch: 23 January)

Event Time Altitude Azimuth Distance (km) Brightness Sun altitude
Rises 20:44:04 0° 265° (W) 2,364 1.2 -31.8°
Reaches altitude 10° 20:46:23 10° 278° (W) 1,501 -0.1 -32.3°
Enters shadow 20:46:29 11° 279° (W) 1,468 -0.2 -32.3°
